Location: Buckenweiler
(49.0667°N, 10.2500°E)
Time: 11:37:53
(UTC+00:00)

Cosmos 1140 Rocket - Pass Details

Date: 18 January 2026
Orbit: 739 x 763 km, 74.1° (Epoch: 16 February)

Event Time Altitude Azimuth Distance (km) Brightness Sun altitude
Rises 06:10:59 0° 238° (WSW) 3,169 6.3 -8.9°
Reaches altitude 10° 06:13:42 10° 251° (WSW) 2,252 5.5 -8.5°
Maximum altitude 06:17:56 26° 308° (NW) 1,446 4.4 -7.8°
Drops below altitude 10° 06:22:14 10° 4° (N) 2,274 5.8 -7.2°
Sets 06:24:59 0° 17° (NNE) 3,207 6.7 -6.7°
